Regional Weather Roundup
Issued by NWS

Home | Current Version | Previous Version | Text Only | Print | Product List | Glossary Off
Versions: 1 2 3 4 5 6 7 8 9 10 11 12 13 14 15 16 17 18 19 20 21 22 23 24 25 26 27 28 29 30 31 32 33 34 35 36 37 38 39 40 41 42 43 44 45 46 47 48 49 50

000
ASUS43 KLOT 231103
RWRIL

ILLINOIS REGIONAL WEATHER ROUNDUP
NATIONAL WEATHER SERVICE CHICAGO/ROMEOVILLE IL
500 AM CST FRI FEB 23 2018

NOTE: "FAIR" INDICATES FEW OR NO CLOUDS BELOW 12,000 FEET WITH NO
SIGNIFICANT WEATHER AND/OR OBSTRUCTIONS TO VISIBILITY.

* THESE STATIONS ARE NOT UNDER NWS QUALITY CONTROL. THEY ALSO MAY NOT
  REPORT WEATHER SUCH AS PRECIPITATION OR FOG.

ILZ001-002-007-009-015-016-024-231200-
NORTHWEST ILLINOIS

CITY           SKY/WX    TMP DP  RH WIND       PRES   REMARKS
MOLINE         CLOUDY    39  39 100 SW9       30.10F WCI  33
STERLING*      MIX PCPN N/A N/A N/A MISG        N/A
SAVANNA*       FOG       37  37  99 SE5       30.09F VSB 1   WCI  33
$$

ILZ003-004-008-010-011-017-018-231200-
NORTH CENTRAL ILLINOIS

CITY           SKY/WX    TMP DP  RH WIND       PRES   REMARKS
ROCKFORD       LGT RAIN  38  37  97 SW7       30.12R FOG     WCI  33
FREEPORT*      CLOUDY    37  37 100 SW7       30.11R FOG     WCI  32
ROCHELLE*      LGT RAIN  38  38 100 S10       30.10R WCI  31
DE KALB*       CLOUDY    38  38 100 S14       30.09S FOG     WCI  29
PERU*          CLOUDY    41  40  97 S12       30.11R FOG
$$

ILZ005-006-012>014-019>023-231200-
NORTHEAST ILLINOIS

CITY           SKY/WX    TMP DP  RH WIND       PRES   REMARKS
CHICAGO-OHARE  LGT RAIN  39  37  92 S8        30.10F FOG     WCI  33
CHICAGO-MIDWAY LGT RAIN  40  40 100 S6        30.12F FOG
AURORA         LGT RAIN  39  38  96 SE13      30.09F FOG     WCI  31
LANSING*       LGT RAIN  38  38 100 SE5       30.12F WCI  35
JOLIET*        RAIN      40  40 100 SE6       30.11S
WAUKEGAN       LGT RAIN  35  35 100 S12       30.09F VSB 3/4 WCI  27
DUPAGE AIRPORT LGT RAIN  39  39 100 S10       30.09S FOG     WCI  32
KANKAKEE*      RAIN      39  39  98 SE5       30.14R VSB 1/2
WHEELING       CLOUDY    40  39  97 S8        30.11S FOG
MORRIS*        DRIZZLE   40  40  99 SE12      30.09F
ROMEOVILLE*    LGT RAIN  38  38 100 S9        30.11S WCI  32
NORTHERLY ISL    N/A     37  36  96 SE6         N/A  WCI  32
$$

LMZ740>746-231200-
SOUTHERN LAKE MICHIGAN

STATION/POSITION SKY/WX   TEMP    WIND        PRES    VSBY  WAVE
                          AIR SEA DIR/SP/G                  HT/PER
                          (F)     (DEG/KT/KT) (MB)    (MI)  (FT/S)
HARRISON CRIB              37     160/ 13/ 14   N/A
BURNHAM HARBOR             37     170/  5/  8   N/A
CALUMET HARBOR             38     150/  9/ 13 1019.6F
BURNS HARBOR               39     150/ 10/ 16 1021.0F
MICHIGAN CITY              38     130/ 16/ 19   N/A
$$

ILZ025>027-034>036-040-047-049-050-058-095>099-231200-
WEST-CENTRAL ILLINOIS

CITY           SKY/WX    TMP DP  RH WIND       PRES   REMARKS
QUINCY         CLOUDY    38  38 100 W8        30.15R FOG     WCI  32
GALESBURG*     CLOUDY    40  40 100 SW12      30.13S
MACOMB*        CLOUDY   N/A N/A N/A W13       30.16R
JACKSONVILLE*  CLOUDY    42  42  98 SW9       30.15S FOG
PITTSFIELD*    CLOUDY    42  42 100 W7        30.16S
$$

ILZ028>032-037-038-041>044-048-051>054-059>061-231200-
CENTRAL ILLINOIS

CITY           SKY/WX    TMP DP  RH WIND       PRES   REMARKS
PONTIAC        CLOUDY    43  42  99 SE8       30.12F FOG
BLOOMINGTON    CLOUDY    43  42  97 S7        30.13F FOG
DECATUR        CLOUDY    46  46 100 SW7       30.14F FOG
PEORIA         CLOUDY    43  43 100 SW9       30.12R FOG
LACON*         DRIZZLE   42  42 100 S7        30.11R
LINCOLN*       CLOUDY    45  45 100 CALM      30.14S FOG
SPRINGFIELD    CLOUDY    46  44  93 SW8       30.15R
TAYLORVILLE    CLOUDY    46  46 100 SW8       30.15F
$$

ILZ033-039-045-046-055>057-062-063-231200-
EAST-CENTRAL ILLINOIS

CITY           SKY/WX    TMP DP  RH WIND       PRES   REMARKS
CHAMPAIGN      LGT RAIN  44  44 100 SW5       30.13R FOG
DANVILLE*      DRIZZLE   44  43  99 SE5       30.09F
RANTOUL*       DRIZZLE   46  45  99 S5        30.11S
MATTOON        LGT RAIN  48  48 100 S7        30.11R FOG
PARIS*         RAIN      47  47 100 SW3       30.12S
$$

ILZ079-100>102-231200-
SOUTHWEST ILLINOIS

CITY           SKY/WX    TMP DP  RH WIND       PRES   REMARKS
ALTON          CLOUDY    45  45 100 W8        30.17S FOG
BELLEVILLE     CLOUDY    47  45  93 W6        30.16S
CAHOKIA*       CLOUDY    46  45  96 W3          N/A
SPARTA*        DRIZZLE   46  46 100 W6        30.19R
$$

ILZ064>066-069>071-074>076-080>082-084>086-088>090-092>094-231200-
SOUTH-CENTRAL ILLINOIS

CITY           SKY/WX    TMP DP  RH WIND       PRES   REMARKS
CARBONDALE     NOT AVBL
CAIRO*         HVY RAIN  56  56  99 S10       30.18R
EFFINGHAM*     RAIN      49  49 100 S3        30.14R
MARION         CLOUDY    56  56  98 SW13      30.16R
MT. VERNON     LGT RAIN  53  52  96 W6        30.15R FOG
CENTRALIA*     DRIZZLE   49  49 100 W14G21    30.16R
SALEM*         DRIZZLE   50  49  95 W13       30.17R
METROPOLIS*    RAIN      59  58  96 S10       30.18R
$$

ILZ067-068-072-073-078-083-087-091-231200-
SOUTHEAST ILLINOIS

CITY           SKY/WX    TMP DP  RH WIND       PRES   REMARKS
LAWRENCEVILLE  CLOUDY    54  53  97 S6        30.13F
FLORA*         DRIZZLE   53  52  98 S5        30.14R
FAIRFIELD*     CLOUDY    53  53 100 CALM      30.13R
HARRISBURG*    CLOUDY    58  58  99 SW7       30.15R
ROBINSON*      CLOUDY    49  49 100 S3        30.14S FOG
CARMI*         CLOUDY    53  53 100 S14       30.13S
$$

ABBREVIATIONS USED IN REMARKS
   TC - TEMPERATURE IN CELSIUS
  WCI - WIND CHILL INDEX
   HX - HEAT INDEX
  VSB - VISIBILITY
$$




USA.gov is the U.S. government's official web portal to all federal, state and local government web resources and services.